<?xml version="1.0" encoding="utf-8"?>
<gpx xmlns:xsi="http://www.w3.org/2001/XMLSchema-instance" xmlns:xsd="http://www.w3.org/2001/XMLSchema" version="1.1" creator="Shapelink.com" xmlns="http://www.topografix.com/GPX/1/1" xmlns:gpxtpx="http://www.garmin.com/xmlschemas/TrackPointExtension/v1">
  <metadata>
    <name>Kører 2.45 km, 2019-11-05</name>
    <desc></desc>
    <author><name>Jens Lunneborg</name></author> 
    <time>1970-01-01T01:00:00Z</time>
  </metadata>
  <trk>
    <name>Kører 2.45 km, 2019-11-05</name>
    <trkseg>
      <trkpt lat="59.37045" lon="17.92819">
        <ele>8.42857</ele>
        <time>1970-01-01T01:00:00Z</time>
      </trkpt>
      <trkpt lat="59.370402" lon="17.928379">
        <ele>8.5</ele>
        <time>1970-01-01T01:00:00Z</time>
      </trkpt>
      <trkpt lat="59.370358" lon="17.928545">
        <ele>8.66667</ele>
        <time>1970-01-01T01:00:00Z</time>
      </trkpt>
      <trkpt lat="59.37032" lon="17.928725">
        <ele>8.8</ele>
        <time>1970-01-01T01:00:00Z</time>
      </trkpt>
      <trkpt lat="59.37027" lon="17.928931">
        <ele>8.90909</ele>
        <time>1970-01-01T01:00:00Z</time>
      </trkpt>
      <trkpt lat="59.370227" lon="17.929094">
        <ele>9.18182</ele>
        <time>1970-01-01T01:00:00Z</time>
      </trkpt>
      <trkpt lat="59.370178" lon="17.929298">
        <ele>9.45455</ele>
        <time>1970-01-01T01:00:00Z</time>
      </trkpt>
      <trkpt lat="59.370131" lon="17.92947">
        <ele>9.72727</ele>
        <time>1970-01-01T01:00:00Z</time>
      </trkpt>
      <trkpt lat="59.370077" lon="17.929651">
        <ele>9.90909</ele>
        <time>1970-01-01T01:00:00Z</time>
      </trkpt>
      <trkpt lat="59.37004" lon="17.929813">
        <ele>10</ele>
        <time>1970-01-01T01:00:00Z</time>
      </trkpt>
      <trkpt lat="59.369999" lon="17.930008">
        <ele>10</ele>
        <time>1970-01-01T01:00:00Z</time>
      </trkpt>
      <trkpt lat="59.369986" lon="17.930206">
        <ele>10</ele>
        <time>1970-01-01T01:00:00Z</time>
      </trkpt>
      <trkpt lat="59.369937" lon="17.930399">
        <ele>10</ele>
        <time>1970-01-01T01:00:00Z</time>
      </trkpt>
      <trkpt lat="59.369896" lon="17.930605">
        <ele>10</ele>
        <time>1970-01-01T01:00:00Z</time>
      </trkpt>
      <trkpt lat="59.369862" lon="17.930818">
        <ele>10</ele>
        <time>1970-01-01T01:00:00Z</time>
      </trkpt>
      <trkpt lat="59.369821" lon="17.931003">
        <ele>10</ele>
        <time>1970-01-01T01:00:00Z</time>
      </trkpt>
      <trkpt lat="59.369788" lon="17.931207">
        <ele>9.90909</ele>
        <time>1970-01-01T01:00:00Z</time>
      </trkpt>
      <trkpt lat="59.369755" lon="17.931388">
        <ele>9.81818</ele>
        <time>1970-01-01T01:00:00Z</time>
      </trkpt>
      <trkpt lat="59.369705" lon="17.931594">
        <ele>9.81818</ele>
        <time>1970-01-01T01:00:00Z</time>
      </trkpt>
      <trkpt lat="59.369685" lon="17.931818">
        <ele>9.90909</ele>
        <time>1970-01-01T01:00:00Z</time>
      </trkpt>
      <trkpt lat="59.369648" lon="17.931989">
        <ele>10</ele>
        <time>1970-01-01T01:00:00Z</time>
      </trkpt>
      <trkpt lat="59.369625" lon="17.93217">
        <ele>10.1818</ele>
        <time>1970-01-01T01:00:00Z</time>
      </trkpt>
      <trkpt lat="59.369593" lon="17.932346">
        <ele>10.3636</ele>
        <time>1970-01-01T01:00:00Z</time>
      </trkpt>
      <trkpt lat="59.369557" lon="17.93252">
        <ele>10.5455</ele>
        <time>1970-01-01T01:00:00Z</time>
      </trkpt>
      <trkpt lat="59.369509" lon="17.932691">
        <ele>10.6364</ele>
        <time>1970-01-01T01:00:00Z</time>
      </trkpt>
      <trkpt lat="59.369462" lon="17.932899">
        <ele>10.7273</ele>
        <time>1970-01-01T01:00:00Z</time>
      </trkpt>
      <trkpt lat="59.36939" lon="17.933021">
        <ele>10.7273</ele>
        <time>1970-01-01T01:00:00Z</time>
      </trkpt>
      <trkpt lat="59.369284" lon="17.93294">
        <ele>10.6364</ele>
        <time>1970-01-01T01:00:00Z</time>
      </trkpt>
      <trkpt lat="59.369191" lon="17.932835">
        <ele>10.4545</ele>
        <time>1970-01-01T01:00:00Z</time>
      </trkpt>
      <trkpt lat="59.369102" lon="17.932783">
        <ele>10.0909</ele>
        <time>1970-01-01T01:00:00Z</time>
      </trkpt>
      <trkpt lat="59.369013" lon="17.93268">
        <ele>9.72727</ele>
        <time>1970-01-01T01:00:00Z</time>
      </trkpt>
      <trkpt lat="59.368924" lon="17.932578">
        <ele>9.36364</ele>
        <time>1970-01-01T01:00:00Z</time>
      </trkpt>
      <trkpt lat="59.36884" lon="17.932469">
        <ele>9</ele>
        <time>1970-01-01T01:00:00Z</time>
      </trkpt>
      <trkpt lat="59.368719" lon="17.932405">
        <ele>8.72727</ele>
        <time>1970-01-01T01:00:00Z</time>
      </trkpt>
      <trkpt lat="59.368617" lon="17.932292">
        <ele>8.45455</ele>
        <time>1970-01-01T01:00:00Z</time>
      </trkpt>
      <trkpt lat="59.368504" lon="17.932275">
        <ele>8.18182</ele>
        <time>1970-01-01T01:00:00Z</time>
      </trkpt>
      <trkpt lat="59.368422" lon="17.932458">
        <ele>7.90909</ele>
        <time>1970-01-01T01:00:00Z</time>
      </trkpt>
      <trkpt lat="59.368341" lon="17.932622">
        <ele>7.72727</ele>
        <time>1970-01-01T01:00:00Z</time>
      </trkpt>
      <trkpt lat="59.368281" lon="17.932811">
        <ele>7.63636</ele>
        <time>1970-01-01T01:00:00Z</time>
      </trkpt>
      <trkpt lat="59.36825" lon="17.933019">
        <ele>7.72727</ele>
        <time>1970-01-01T01:00:00Z</time>
      </trkpt>
      <trkpt lat="59.368213" lon="17.933255">
        <ele>7.90909</ele>
        <time>1970-01-01T01:00:00Z</time>
      </trkpt>
      <trkpt lat="59.368174" lon="17.933453">
        <ele>8.27273</ele>
        <time>1970-01-01T01:00:00Z</time>
      </trkpt>
      <trkpt lat="59.368141" lon="17.933641">
        <ele>8.72727</ele>
        <time>1970-01-01T01:00:00Z</time>
      </trkpt>
      <trkpt lat="59.368079" lon="17.933833">
        <ele>9.36364</ele>
        <time>1970-01-01T01:00:00Z</time>
      </trkpt>
      <trkpt lat="59.368027" lon="17.934019">
        <ele>9.90909</ele>
        <time>1970-01-01T01:00:00Z</time>
      </trkpt>
      <trkpt lat="59.368023" lon="17.934196">
        <ele>10.5455</ele>
        <time>1970-01-01T01:00:00Z</time>
      </trkpt>
      <trkpt lat="59.367941" lon="17.934072">
        <ele>11.2727</ele>
        <time>1970-01-01T01:00:00Z</time>
      </trkpt>
      <trkpt lat="59.367917" lon="17.93389">
        <ele>12.1818</ele>
        <time>1970-01-01T01:00:00Z</time>
      </trkpt>
      <trkpt lat="59.367903" lon="17.933655">
        <ele>13</ele>
        <time>1970-01-01T01:00:00Z</time>
      </trkpt>
      <trkpt lat="59.367895" lon="17.933467">
        <ele>13.8182</ele>
        <time>1970-01-01T01:00:00Z</time>
      </trkpt>
      <trkpt lat="59.36791" lon="17.933287">
        <ele>14.4545</ele>
        <time>1970-01-01T01:00:00Z</time>
      </trkpt>
      <trkpt lat="59.367907" lon="17.933066">
        <ele>15</ele>
        <time>1970-01-01T01:00:00Z</time>
      </trkpt>
      <trkpt lat="59.367893" lon="17.932851">
        <ele>15.4545</ele>
        <time>1970-01-01T01:00:00Z</time>
      </trkpt>
      <trkpt lat="59.367916" lon="17.932626">
        <ele>15.9091</ele>
        <time>1970-01-01T01:00:00Z</time>
      </trkpt>
      <trkpt lat="59.36793" lon="17.93244">
        <ele>16.2727</ele>
        <time>1970-01-01T01:00:00Z</time>
      </trkpt>
      <trkpt lat="59.36795" lon="17.932231">
        <ele>16.6364</ele>
        <time>1970-01-01T01:00:00Z</time>
      </trkpt>
      <trkpt lat="59.367953" lon="17.932046">
        <ele>17</ele>
        <time>1970-01-01T01:00:00Z</time>
      </trkpt>
      <trkpt lat="59.367923" lon="17.931849">
        <ele>17.3636</ele>
        <time>1970-01-01T01:00:00Z</time>
      </trkpt>
      <trkpt lat="59.367872" lon="17.9317">
        <ele>17.6364</ele>
        <time>1970-01-01T01:00:00Z</time>
      </trkpt>
      <trkpt lat="59.367796" lon="17.931541">
        <ele>18.0909</ele>
        <time>1970-01-01T01:00:00Z</time>
      </trkpt>
      <trkpt lat="59.3677" lon="17.931423">
        <ele>18.7273</ele>
        <time>1970-01-01T01:00:00Z</time>
      </trkpt>
      <trkpt lat="59.367614" lon="17.931342">
        <ele>19.6364</ele>
        <time>1970-01-01T01:00:00Z</time>
      </trkpt>
      <trkpt lat="59.367518" lon="17.931249">
        <ele>20.7273</ele>
        <time>1970-01-01T01:00:00Z</time>
      </trkpt>
      <trkpt lat="59.367409" lon="17.931236">
        <ele>21.8182</ele>
        <time>1970-01-01T01:00:00Z</time>
      </trkpt>
      <trkpt lat="59.367303" lon="17.931224">
        <ele>22.9091</ele>
        <time>1970-01-01T01:00:00Z</time>
      </trkpt>
      <trkpt lat="59.367223" lon="17.93133">
        <ele>24.0909</ele>
        <time>1970-01-01T01:00:00Z</time>
      </trkpt>
      <trkpt lat="59.367186" lon="17.93153">
        <ele>25.2727</ele>
        <time>1970-01-01T01:00:00Z</time>
      </trkpt>
      <trkpt lat="59.367149" lon="17.931702">
        <ele>26.4545</ele>
        <time>1970-01-01T01:00:00Z</time>
      </trkpt>
      <trkpt lat="59.367124" lon="17.931894">
        <ele>27.6364</ele>
        <time>1970-01-01T01:00:00Z</time>
      </trkpt>
      <trkpt lat="59.367114" lon="17.932076">
        <ele>28.8182</ele>
        <time>1970-01-01T01:00:00Z</time>
      </trkpt>
      <trkpt lat="59.367092" lon="17.932272">
        <ele>29.8182</ele>
        <time>1970-01-01T01:00:00Z</time>
      </trkpt>
      <trkpt lat="59.367057" lon="17.932446">
        <ele>30.6364</ele>
        <time>1970-01-01T01:00:00Z</time>
      </trkpt>
      <trkpt lat="59.366986" lon="17.93259">
        <ele>31.1818</ele>
        <time>1970-01-01T01:00:00Z</time>
      </trkpt>
      <trkpt lat="59.366916" lon="17.932717">
        <ele>31.5455</ele>
        <time>1970-01-01T01:00:00Z</time>
      </trkpt>
      <trkpt lat="59.366804" lon="17.93278">
        <ele>31.8182</ele>
        <time>1970-01-01T01:00:00Z</time>
      </trkpt>
      <trkpt lat="59.366712" lon="17.932859">
        <ele>32</ele>
        <time>1970-01-01T01:00:00Z</time>
      </trkpt>
      <trkpt lat="59.366631" lon="17.932944">
        <ele>31.9091</ele>
        <time>1970-01-01T01:00:00Z</time>
      </trkpt>
      <trkpt lat="59.366547" lon="17.933058">
        <ele>31.8182</ele>
        <time>1970-01-01T01:00:00Z</time>
      </trkpt>
      <trkpt lat="59.366476" lon="17.933193">
        <ele>31.6364</ele>
        <time>1970-01-01T01:00:00Z</time>
      </trkpt>
      <trkpt lat="59.366418" lon="17.933371">
        <ele>31.3636</ele>
        <time>1970-01-01T01:00:00Z</time>
      </trkpt>
      <trkpt lat="59.366347" lon="17.93348">
        <ele>30.9091</ele>
        <time>1970-01-01T01:00:00Z</time>
      </trkpt>
      <trkpt lat="59.366275" lon="17.933653">
        <ele>30.5455</ele>
        <time>1970-01-01T01:00:00Z</time>
      </trkpt>
      <trkpt lat="59.366199" lon="17.933791">
        <ele>30.1818</ele>
        <time>1970-01-01T01:00:00Z</time>
      </trkpt>
      <trkpt lat="59.366094" lon="17.933893">
        <ele>29.8182</ele>
        <time>1970-01-01T01:00:00Z</time>
      </trkpt>
      <trkpt lat="59.366009" lon="17.933975">
        <ele>29.5455</ele>
        <time>1970-01-01T01:00:00Z</time>
      </trkpt>
      <trkpt lat="59.365913" lon="17.934067">
        <ele>29.1818</ele>
        <time>1970-01-01T01:00:00Z</time>
      </trkpt>
      <trkpt lat="59.365802" lon="17.934091">
        <ele>28.8182</ele>
        <time>1970-01-01T01:00:00Z</time>
      </trkpt>
      <trkpt lat="59.365711" lon="17.934138">
        <ele>28.5455</ele>
        <time>1970-01-01T01:00:00Z</time>
      </trkpt>
      <trkpt lat="59.365616" lon="17.934133">
        <ele>28.2727</ele>
        <time>1970-01-01T01:00:00Z</time>
      </trkpt>
      <trkpt lat="59.36551" lon="17.934074">
        <ele>28</ele>
        <time>1970-01-01T01:00:00Z</time>
      </trkpt>
      <trkpt lat="59.365405" lon="17.934105">
        <ele>27.6364</ele>
        <time>1970-01-01T01:00:00Z</time>
      </trkpt>
      <trkpt lat="59.365315" lon="17.934235">
        <ele>27.2727</ele>
        <time>1970-01-01T01:00:00Z</time>
      </trkpt>
      <trkpt lat="59.365226" lon="17.934357">
        <ele>26.9091</ele>
        <time>1970-01-01T01:00:00Z</time>
      </trkpt>
      <trkpt lat="59.365141" lon="17.934466">
        <ele>26.5455</ele>
        <time>1970-01-01T01:00:00Z</time>
      </trkpt>
      <trkpt lat="59.365051" lon="17.934542">
        <ele>26.2727</ele>
        <time>1970-01-01T01:00:00Z</time>
      </trkpt>
      <trkpt lat="59.364956" lon="17.934669">
        <ele>26</ele>
        <time>1970-01-01T01:00:00Z</time>
      </trkpt>
      <trkpt lat="59.36487" lon="17.934778">
        <ele>25.9091</ele>
        <time>1970-01-01T01:00:00Z</time>
      </trkpt>
      <trkpt lat="59.364777" lon="17.934923">
        <ele>25.9091</ele>
        <time>1970-01-01T01:00:00Z</time>
      </trkpt>
      <trkpt lat="59.364702" lon="17.93506">
        <ele>26</ele>
        <time>1970-01-01T01:00:00Z</time>
      </trkpt>
      <trkpt lat="59.364608" lon="17.935115">
        <ele>26.1818</ele>
        <time>1970-01-01T01:00:00Z</time>
      </trkpt>
      <trkpt lat="59.364544" lon="17.935268">
        <ele>26.4545</ele>
        <time>1970-01-01T01:00:00Z</time>
      </trkpt>
      <trkpt lat="59.364485" lon="17.935414">
        <ele>26.9091</ele>
        <time>1970-01-01T01:00:00Z</time>
      </trkpt>
      <trkpt lat="59.364424" lon="17.935565">
        <ele>27.5455</ele>
        <time>1970-01-01T01:00:00Z</time>
      </trkpt>
      <trkpt lat="59.364374" lon="17.935766">
        <ele>28.2727</ele>
        <time>1970-01-01T01:00:00Z</time>
      </trkpt>
      <trkpt lat="59.364347" lon="17.93594">
        <ele>29</ele>
        <time>1970-01-01T01:00:00Z</time>
      </trkpt>
      <trkpt lat="59.364303" lon="17.936102">
        <ele>29.7273</ele>
        <time>1970-01-01T01:00:00Z</time>
      </trkpt>
      <trkpt lat="59.364276" lon="17.936298">
        <ele>30.4545</ele>
        <time>1970-01-01T01:00:00Z</time>
      </trkpt>
      <trkpt lat="59.364274" lon="17.936497">
        <ele>31</ele>
        <time>1970-01-01T01:00:00Z</time>
      </trkpt>
      <trkpt lat="59.364264" lon="17.936705">
        <ele>31.4545</ele>
        <time>1970-01-01T01:00:00Z</time>
      </trkpt>
      <trkpt lat="59.364246" lon="17.936881">
        <ele>31.8182</ele>
        <time>1970-01-01T01:00:00Z</time>
      </trkpt>
      <trkpt lat="59.36429" lon="17.937077">
        <ele>32.0909</ele>
        <time>1970-01-01T01:00:00Z</time>
      </trkpt>
      <trkpt lat="59.364386" lon="17.937145">
        <ele>32.2727</ele>
        <time>1970-01-01T01:00:00Z</time>
      </trkpt>
      <trkpt lat="59.364465" lon="17.937049">
        <ele>32.3636</ele>
        <time>1970-01-01T01:00:00Z</time>
      </trkpt>
      <trkpt lat="59.364556" lon="17.937018">
        <ele>32.3636</ele>
        <time>1970-01-01T01:00:00Z</time>
      </trkpt>
      <trkpt lat="59.364655" lon="17.937003">
        <ele>32.1818</ele>
        <time>1970-01-01T01:00:00Z</time>
      </trkpt>
      <trkpt lat="59.36474" lon="17.936934">
        <ele>32.0909</ele>
        <time>1970-01-01T01:00:00Z</time>
      </trkpt>
      <trkpt lat="59.364831" lon="17.93687">
        <ele>32</ele>
        <time>1970-01-01T01:00:00Z</time>
      </trkpt>
      <trkpt lat="59.364897" lon="17.936712">
        <ele>31.9091</ele>
        <time>1970-01-01T01:00:00Z</time>
      </trkpt>
      <trkpt lat="59.364978" lon="17.93658">
        <ele>31.8182</ele>
        <time>1970-01-01T01:00:00Z</time>
      </trkpt>
      <trkpt lat="59.365019" lon="17.93642">
        <ele>31.7273</ele>
        <time>1970-01-01T01:00:00Z</time>
      </trkpt>
      <trkpt lat="59.365064" lon="17.936257">
        <ele>31.6364</ele>
        <time>1970-01-01T01:00:00Z</time>
      </trkpt>
      <trkpt lat="59.365088" lon="17.936087">
        <ele>31.5455</ele>
        <time>1970-01-01T01:00:00Z</time>
      </trkpt>
      <trkpt lat="59.365121" lon="17.93592">
        <ele>31.4545</ele>
        <time>1970-01-01T01:00:00Z</time>
      </trkpt>
      <trkpt lat="59.365143" lon="17.935712">
        <ele>31.3636</ele>
        <time>1970-01-01T01:00:00Z</time>
      </trkpt>
      <trkpt lat="59.365195" lon="17.935501">
        <ele>31.1818</ele>
        <time>1970-01-01T01:00:00Z</time>
      </trkpt>
      <trkpt lat="59.365267" lon="17.935329">
        <ele>31.0909</ele>
        <time>1970-01-01T01:00:00Z</time>
      </trkpt>
      <trkpt lat="59.365341" lon="17.935153">
        <ele>31</ele>
        <time>1970-01-01T01:00:00Z</time>
      </trkpt>
      <trkpt lat="59.365422" lon="17.935015">
        <ele>30.9091</ele>
        <time>1970-01-01T01:00:00Z</time>
      </trkpt>
      <trkpt lat="59.365515" lon="17.9349">
        <ele>30.9091</ele>
        <time>1970-01-01T01:00:00Z</time>
      </trkpt>
      <trkpt lat="59.36558" lon="17.934742">
        <ele>31.0909</ele>
        <time>1970-01-01T01:00:00Z</time>
      </trkpt>
      <trkpt lat="59.365669" lon="17.934608">
        <ele>31.3636</ele>
        <time>1970-01-01T01:00:00Z</time>
      </trkpt>
      <trkpt lat="59.365772" lon="17.93459">
        <ele>31.6364</ele>
        <time>1970-01-01T01:00:00Z</time>
      </trkpt>
      <trkpt lat="59.36589" lon="17.934635">
        <ele>31.8182</ele>
        <time>1970-01-01T01:00:00Z</time>
      </trkpt>
      <trkpt lat="59.365981" lon="17.934738">
        <ele>32</ele>
        <time>1970-01-01T01:00:00Z</time>
      </trkpt>
      <trkpt lat="59.36606" lon="17.934841">
        <ele>32.1818</ele>
        <time>1970-01-01T01:00:00Z</time>
      </trkpt>
      <trkpt lat="59.36615" lon="17.934975">
        <ele>32.4545</ele>
        <time>1970-01-01T01:00:00Z</time>
      </trkpt>
      <trkpt lat="59.366258" lon="17.935071">
        <ele>32.8182</ele>
        <time>1970-01-01T01:00:00Z</time>
      </trkpt>
      <trkpt lat="59.366351" lon="17.935143">
        <ele>33.0909</ele>
        <time>1970-01-01T01:00:00Z</time>
      </trkpt>
      <trkpt lat="59.366391" lon="17.935312">
        <ele>33.3636</ele>
        <time>1970-01-01T01:00:00Z</time>
      </trkpt>
      <trkpt lat="59.366381" lon="17.9355">
        <ele>33.4545</ele>
        <time>1970-01-01T01:00:00Z</time>
      </trkpt>
      <trkpt lat="59.366366" lon="17.935704">
        <ele>33.3636</ele>
        <time>1970-01-01T01:00:00Z</time>
      </trkpt>
      <trkpt lat="59.366327" lon="17.935921">
        <ele>33.0909</ele>
        <time>1970-01-01T01:00:00Z</time>
      </trkpt>
      <trkpt lat="59.366349" lon="17.936093">
        <ele>32.8182</ele>
        <time>1970-01-01T01:00:00Z</time>
      </trkpt>
      <trkpt lat="59.366388" lon="17.936293">
        <ele>32.5455</ele>
        <time>1970-01-01T01:00:00Z</time>
      </trkpt>
      <trkpt lat="59.366421" lon="17.936466">
        <ele>32.1818</ele>
        <time>1970-01-01T01:00:00Z</time>
      </trkpt>
      <trkpt lat="59.366512" lon="17.936455">
        <ele>31.8182</ele>
        <time>1970-01-01T01:00:00Z</time>
      </trkpt>
      <trkpt lat="59.36658" lon="17.936291">
        <ele>31.4545</ele>
        <time>1970-01-01T01:00:00Z</time>
      </trkpt>
      <trkpt lat="59.366627" lon="17.936129">
        <ele>31</ele>
        <time>1970-01-01T01:00:00Z</time>
      </trkpt>
      <trkpt lat="59.366713" lon="17.935987">
        <ele>30.4545</ele>
        <time>1970-01-01T01:00:00Z</time>
      </trkpt>
      <trkpt lat="59.366773" lon="17.935833">
        <ele>29.8182</ele>
        <time>1970-01-01T01:00:00Z</time>
      </trkpt>
      <trkpt lat="59.366795" lon="17.935641">
        <ele>29.2727</ele>
        <time>1970-01-01T01:00:00Z</time>
      </trkpt>
      <trkpt lat="59.366859" lon="17.935472">
        <ele>28.7273</ele>
        <time>1970-01-01T01:00:00Z</time>
      </trkpt>
      <trkpt lat="59.366944" lon="17.935342">
        <ele>28</ele>
        <time>1970-01-01T01:00:00Z</time>
      </trkpt>
      <trkpt lat="59.367039" lon="17.935195">
        <ele>27.2727</ele>
        <time>1970-01-01T01:00:00Z</time>
      </trkpt>
      <trkpt lat="59.367118" lon="17.935075">
        <ele>26.5455</ele>
        <time>1970-01-01T01:00:00Z</time>
      </trkpt>
      <trkpt lat="59.367199" lon="17.934947">
        <ele>25.7273</ele>
        <time>1970-01-01T01:00:00Z</time>
      </trkpt>
      <trkpt lat="59.367288" lon="17.934857">
        <ele>24.5455</ele>
        <time>1970-01-01T01:00:00Z</time>
      </trkpt>
      <trkpt lat="59.367386" lon="17.934799">
        <ele>23.0909</ele>
        <time>1970-01-01T01:00:00Z</time>
      </trkpt>
      <trkpt lat="59.367446" lon="17.93464">
        <ele>21.3636</ele>
        <time>1970-01-01T01:00:00Z</time>
      </trkpt>
      <trkpt lat="59.367528" lon="17.934487">
        <ele>19.5455</ele>
        <time>1970-01-01T01:00:00Z</time>
      </trkpt>
      <trkpt lat="59.36761" lon="17.934373">
        <ele>17.7273</ele>
        <time>1970-01-01T01:00:00Z</time>
      </trkpt>
      <trkpt lat="59.367719" lon="17.934272">
        <ele>15.9091</ele>
        <time>1970-01-01T01:00:00Z</time>
      </trkpt>
      <trkpt lat="59.367855" lon="17.934244">
        <ele>14.2727</ele>
        <time>1970-01-01T01:00:00Z</time>
      </trkpt>
      <trkpt lat="59.367988" lon="17.934188">
        <ele>12.9091</ele>
        <time>1970-01-01T01:00:00Z</time>
      </trkpt>
      <trkpt lat="59.368074" lon="17.934077">
        <ele>11.5455</ele>
        <time>1970-01-01T01:00:00Z</time>
      </trkpt>
      <trkpt lat="59.368172" lon="17.933956">
        <ele>10.1818</ele>
        <time>1970-01-01T01:00:00Z</time>
      </trkpt>
      <trkpt lat="59.36821" lon="17.933779">
        <ele>9</ele>
        <time>1970-01-01T01:00:00Z</time>
      </trkpt>
      <trkpt lat="59.368227" lon="17.933583">
        <ele>8.18182</ele>
        <time>1970-01-01T01:00:00Z</time>
      </trkpt>
      <trkpt lat="59.368227" lon="17.93339">
        <ele>7.63636</ele>
        <time>1970-01-01T01:00:00Z</time>
      </trkpt>
      <trkpt lat="59.368266" lon="17.933206">
        <ele>7.36364</ele>
        <time>1970-01-01T01:00:00Z</time>
      </trkpt>
      <trkpt lat="59.368304" lon="17.933015">
        <ele>7.27273</ele>
        <time>1970-01-01T01:00:00Z</time>
      </trkpt>
      <trkpt lat="59.368338" lon="17.932835">
        <ele>7.36364</ele>
        <time>1970-01-01T01:00:00Z</time>
      </trkpt>
      <trkpt lat="59.368388" lon="17.932649">
        <ele>7.54545</ele>
        <time>1970-01-01T01:00:00Z</time>
      </trkpt>
      <trkpt lat="59.36843" lon="17.932452">
        <ele>7.72727</ele>
        <time>1970-01-01T01:00:00Z</time>
      </trkpt>
      <trkpt lat="59.368519" lon="17.932378">
        <ele>8</ele>
        <time>1970-01-01T01:00:00Z</time>
      </trkpt>
      <trkpt lat="59.368611" lon="17.932473">
        <ele>8.27273</ele>
        <time>1970-01-01T01:00:00Z</time>
      </trkpt>
      <trkpt lat="59.368695" lon="17.932548">
        <ele>8.63636</ele>
        <time>1970-01-01T01:00:00Z</time>
      </trkpt>
      <trkpt lat="59.368811" lon="17.932573">
        <ele>9</ele>
        <time>1970-01-01T01:00:00Z</time>
      </trkpt>
      <trkpt lat="59.368917" lon="17.932601">
        <ele>9.36364</ele>
        <time>1970-01-01T01:00:00Z</time>
      </trkpt>
      <trkpt lat="59.369013" lon="17.932673">
        <ele>9.72727</ele>
        <time>1970-01-01T01:00:00Z</time>
      </trkpt>
      <trkpt lat="59.36911" lon="17.932757">
        <ele>10.0909</ele>
        <time>1970-01-01T01:00:00Z</time>
      </trkpt>
      <trkpt lat="59.369197" lon="17.932871">
        <ele>10.4545</ele>
        <time>1970-01-01T01:00:00Z</time>
      </trkpt>
      <trkpt lat="59.369285" lon="17.932989">
        <ele>10.7273</ele>
        <time>1970-01-01T01:00:00Z</time>
      </trkpt>
      <trkpt lat="59.369381" lon="17.933011">
        <ele>10.8182</ele>
        <time>1970-01-01T01:00:00Z</time>
      </trkpt>
      <trkpt lat="59.369482" lon="17.93299">
        <ele>10.8182</ele>
        <time>1970-01-01T01:00:00Z</time>
      </trkpt>
      <trkpt lat="59.369509" lon="17.932819">
        <ele>10.7273</ele>
        <time>1970-01-01T01:00:00Z</time>
      </trkpt>
      <trkpt lat="59.369549" lon="17.932651">
        <ele>10.6364</ele>
        <time>1970-01-01T01:00:00Z</time>
      </trkpt>
      <trkpt lat="59.369581" lon="17.932468">
        <ele>10.5455</ele>
        <time>1970-01-01T01:00:00Z</time>
      </trkpt>
      <trkpt lat="59.36961" lon="17.932298">
        <ele>10.3636</ele>
        <time>1970-01-01T01:00:00Z</time>
      </trkpt>
      <trkpt lat="59.369647" lon="17.932089">
        <ele>10.1818</ele>
        <time>1970-01-01T01:00:00Z</time>
      </trkpt>
      <trkpt lat="59.369645" lon="17.931894">
        <ele>10</ele>
        <time>1970-01-01T01:00:00Z</time>
      </trkpt>
      <trkpt lat="59.369709" lon="17.931738">
        <ele>9.90909</ele>
        <time>1970-01-01T01:00:00Z</time>
      </trkpt>
      <trkpt lat="59.369733" lon="17.931555">
        <ele>9.81818</ele>
        <time>1970-01-01T01:00:00Z</time>
      </trkpt>
      <trkpt lat="59.369773" lon="17.931385">
        <ele>9.72727</ele>
        <time>1970-01-01T01:00:00Z</time>
      </trkpt>
      <trkpt lat="59.369818" lon="17.931213">
        <ele>9.81818</ele>
        <time>1970-01-01T01:00:00Z</time>
      </trkpt>
      <trkpt lat="59.369846" lon="17.931034">
        <ele>9.90909</ele>
        <time>1970-01-01T01:00:00Z</time>
      </trkpt>
      <trkpt lat="59.369869" lon="17.930838">
        <ele>10</ele>
        <time>1970-01-01T01:00:00Z</time>
      </trkpt>
      <trkpt lat="59.369875" lon="17.930649">
        <ele>10</ele>
        <time>1970-01-01T01:00:00Z</time>
      </trkpt>
      <trkpt lat="59.369915" lon="17.930474">
        <ele>10</ele>
        <time>1970-01-01T01:00:00Z</time>
      </trkpt>
      <trkpt lat="59.369939" lon="17.930274">
        <ele>10.0909</ele>
        <time>1970-01-01T01:00:00Z</time>
      </trkpt>
      <trkpt lat="59.369971" lon="17.930107">
        <ele>10.0909</ele>
        <time>1970-01-01T01:00:00Z</time>
      </trkpt>
      <trkpt lat="59.370011" lon="17.929936">
        <ele>10.0909</ele>
        <time>1970-01-01T01:00:00Z</time>
      </trkpt>
      <trkpt lat="59.370067" lon="17.929746">
        <ele>10</ele>
        <time>1970-01-01T01:00:00Z</time>
      </trkpt>
      <trkpt lat="59.3701" lon="17.929547">
        <ele>9.81818</ele>
        <time>1970-01-01T01:00:00Z</time>
      </trkpt>
      <trkpt lat="59.370147" lon="17.929367">
        <ele>9.63636</ele>
        <time>1970-01-01T01:00:00Z</time>
      </trkpt>
      <trkpt lat="59.370191" lon="17.929197">
        <ele>9.36364</ele>
        <time>1970-01-01T01:00:00Z</time>
      </trkpt>
      <trkpt lat="59.370231" lon="17.928976">
        <ele>9</ele>
        <time>1970-01-01T01:00:00Z</time>
      </trkpt>
      <trkpt lat="59.370273" lon="17.928815">
        <ele>8.72727</ele>
        <time>1970-01-01T01:00:00Z</time>
      </trkpt>
      <trkpt lat="59.370298" lon="17.928631">
        <ele>8.6</ele>
        <time>1970-01-01T01:00:00Z</time>
      </trkpt>
      <trkpt lat="59.370347" lon="17.928441">
        <ele>8.44444</ele>
        <time>1970-01-01T01:00:00Z</time>
      </trkpt>
      <trkpt lat="59.370374" lon="17.92826">
        <ele>8.25</ele>
        <time>1970-01-01T01:00:00Z</time>
      </trkpt>
      <trkpt lat="59.370384" lon="17.928069">
        <ele>8.14286</ele>
        <time>1970-01-01T01:00:00Z</time>
      </trkpt>
      <trkpt lat="59.370434" lon="17.92797">
        <ele>8</ele>
        <time>1970-01-01T01:00:00Z</time>
      </trkpt>
    </trkseg>
  </trk>
</gpx>